Simultaneous Nadir Overpasses (SNOs) Predictions

Prediction of SNOs between GOES-15 and TERRA Satellite Orbit:

Table of predicted SNOs for the next 14.0 days since TLE Epoch: 2/7/2015
Index Date Time (GOES-15) GOES-15 Lat,Lon TERRA Lat,Lon Distance(km) Time Diff (sec)
1 02/07/2015 19:27:57 0.06,-135.21 -0.19,-134.14 122.36 80
2 02/08/2015 07:49:21 -0.07,-135.18 -0.97,-139.33 472.31 80
3 02/09/2015 19:15:49 0.06,-135.26 -0.82,-131.20 461.59 80
4 02/10/2015 07:37:14 -0.06,-135.22 -0.31,-136.39 133.54 80
5 02/12/2015 07:22:28 -0.06,-135.25 0.31,-133.46 203.58 80
6 02/12/2015 19:43:46 0.06,-135.31 0.75,-138.63 377.68 80
7 02/14/2015 19:31:42 0.06,-135.33 0.15,-135.71 42.54 80
8 02/16/2015 19:22:20 0.06,-135.35 -0.47,-132.79 291.13 80
9 02/17/2015 07:43:47
